owner,sensor,date,latitude,longitude,vertical_datum,sea_water_practical_salinity,qcFlag 
SCCF RECON,ioos:station:SCCF:11:1,2013-03-01T00:00:00Z,26.4679,-82.0631,1.675,33.82,1111122 
SCCF RECON,ioos:station:SCCF:11:1,2013-03-01T01:00:00Z,26.4679,-82.0631,1.566,33.82,1111122 
SCCF RECON,ioos:station:SCCF:11:1,2013-03-01T02:00:00Z,26.4679,-82.0631,1.494,33.81,1111122 
SCCF RECON,ioos:station:SCCF:11:1,2013-03-01T03:00:00Z,26.4679,-82.0631,1.52,33.78,1111122 
SCCF RECON,ioos:station:SCCF:11:1,2013-03-01T04:00:00Z,26.4679,-82.0631,1.65,33.83,1111122 
SCCF RECON,ioos:station:SCCF:11:1,2013-03-01T05:00:00Z,26.4679,-82.0631,1.819,33.84,1111122 
SCCF RECON,ioos:station:SCCF:11:1,2013-03-01T06:00:00Z,26.4679,-82.0631,1.956,33.83,1111122 
SCCF RECON,ioos:station:SCCF:11:1,2013-03-01T07:00:00Z,26.4679,-82.0631,2.05,33.85,1111122 
SCCF RECON,ioos:station:SCCF:11:1,2013-03-01T08:00:00Z,26.4679,-82.0631,2.115,33.72,1111122 
SCCF RECON,ioos:station:SCCF:11:1,2013-03-01T09:00:00Z,26.4679,-82.0631,2.091,33.7,1111122 
SCCF RECON,ioos:station:SCCF:11:1,2013-03-01T10:00:00Z,26.4679,-82.0631,1.962,33.81,1111122 
SCCF RECON,ioos:station:SCCF:11:1,2013-03-01T11:00:00Z,26.4679,-82.0631,1.82,33.83,1111122 
SCCF RECON,ioos:station:SCCF:11:1,2013-03-01T12:00:00Z,26.4679,-82.0631,1.744,33.83,1111122 
SCCF RECON,ioos:station:SCCF:11:1,2013-03-01T13:00:00Z,26.4679,-82.0631,1.68,33.83,1111122 
SCCF RECON,ioos:station:SCCF:11:1,2013-03-01T14:00:00Z,26.4679,-82.0631,1.631,33.84,1111122 
SCCF RECON,ioos:station:SCCF:11:1,2013-03-01T15:00:00Z,26.4679,-82.0631,1.638,33.84,1111122 
SCCF RECON,ioos:station:SCCF:11:1,2013-03-01T16:00:00Z,26.4679,-82.0631,1.738,33.83,1111122 
SCCF RECON,ioos:station:SCCF:11:1,2013-03-01T17:00:00Z,26.4679,-82.0631,1.892,33.83,1111122 
SCCF RECON,ioos:station:SCCF:11:1,2013-03-01T18:00:00Z,26.4679,-82.0631,1.999,33.67,1111122 
SCCF RECON,ioos:station:SCCF:11:1,2013-03-01T19:00:00Z,26.4679,-82.0631,2.08,33.47,1111122 
SCCF RECON,ioos:station:SCCF:11:1,2013-03-01T20:00:00Z,26.4679,-82.0631,2.119,33.47,1111122 
SCCF RECON,ioos:station:SCCF:11:1,2013-03-01T21:00:00Z,26.4679,-82.0631,1.0,-9999.0,1111122 
SCCF RECON,ioos:station:SCCF:11:1,2013-03-01T22:00:00Z,26.4679,-82.0631,1.0,-9999.0,1111122 
SCCF RECON,ioos:station:SCCF:11:1,2013-03-01T23:00:00Z,26.4679,-82.0631,1.0,-9999.0,1111122 
SCCF RECON,ioos:station:SCCF:11:1,2013-03-02T00:00:00Z,26.4679,-82.0631,1.0,-9999.0,1111122 
SCCF RECON,ioos:station:SCCF:11:1,2013-03-02T01:00:00Z,26.4679,-82.0631,1.0,-9999.0,1111122 
SCCF RECON,ioos:station:SCCF:11:1,2013-03-02T02:00:00Z,26.4679,-82.0631,1.0,-9999.0,1111122 
SCCF RECON,ioos:station:SCCF:11:1,2013-03-02T03:00:00Z,26.4679,-82.0631,1.0,-9999.0,1111122 
SCCF RECON,ioos:station:SCCF:11:1,2013-03-02T04:00:00Z,26.4679,-82.0631,1.0,-9999.0,1111122 
SCCF RECON,ioos:station:SCCF:11:1,2013-03-02T05:00:00Z,26.4679,-82.0631,1.0,-9999.0,1111122 
SCCF RECON,ioos:station:SCCF:11:1,2013-03-02T06:00:00Z,26.4679,-82.0631,1.0,-9999.0,1111122 
SCCF RECON,ioos:station:SCCF:11:1,2013-03-02T07:00:00Z,26.4679,-82.0631,1.0,-9999.0,1111122 
SCCF RECON,ioos:station:SCCF:11:1,2013-03-02T08:00:00Z,26.4679,-82.0631,1.0,-9999.0,1111122 
SCCF RECON,ioos:station:SCCF:11:1,2013-03-02T09:00:00Z,26.4679,-82.0631,1.0,-9999.0,1111122 
SCCF RECON,ioos:station:SCCF:11:1,2013-03-02T10:00:00Z,26.4679,-82.0631,1.0,-9999.0,1111122 
SCCF RECON,ioos:station:SCCF:11:1,2013-03-02T11:00:00Z,26.4679,-82.0631,1.0,-9999.0,1111122 
SCCF RECON,ioos:station:SCCF:11:1,2013-03-02T12:00:00Z,26.4679,-82.0631,1.0,-9999.0,1111122 
SCCF RECON,ioos:station:SCCF:11:1,2013-03-02T13:00:00Z,26.4679,-82.0631,1.0,-9999.0,1111122 
SCCF RECON,ioos:station:SCCF:11:1,2013-03-02T14:00:00Z,26.4679,-82.0631,1.0,-9999.0,1111122 
SCCF RECON,ioos:station:SCCF:11:1,2013-03-02T15:00:00Z,26.4679,-82.0631,1.0,-9999.0,1111122 
SCCF RECON,ioos:station:SCCF:11:1,2013-03-02T16:00:00Z,26.4679,-82.0631,1.0,-9999.0,1111122 
SCCF RECON,ioos:station:SCCF:11:1,2013-03-02T17:00:00Z,26.4679,-82.0631,1.0,-9999.0,1111122 
SCCF RECON,ioos:station:SCCF:11:1,2013-03-02T18:00:00Z,26.4679,-82.0631,1.0,-9999.0,1111122 
SCCF RECON,ioos:station:SCCF:11:1,2013-03-02T19:00:00Z,26.4679,-82.0631,1.0,-9999.0,1111122 
SCCF RECON,ioos:station:SCCF:11:1,2013-03-02T20:00:00Z,26.4679,-82.0631,1.0,-9999.0,1111122 
SCCF RECON,ioos:station:SCCF:11:1,2013-03-02T21:00:00Z,26.4679,-82.0631,1.0,-9999.0,1111122 
SCCF RECON,ioos:station:SCCF:11:1,2013-03-02T22:00:00Z,26.4679,-82.0631,1.0,-9999.0,1111122 
SCCF RECON,ioos:station:SCCF:11:1,2013-03-02T23:00:00Z,26.4679,-82.0631,1.0,-9999.0,1111122 
SCCF RECON,ioos:station:SCCF:11:1,2013-03-03T00:00:00Z,26.4679,-82.0631,1.0,-9999.0,1111122 
SCCF RECON,ioos:station:SCCF:11:1,2013-03-03T01:00:00Z,26.4679,-82.0631,1.0,-9999.0,1111122 
SCCF RECON,ioos:station:SCCF:11:1,2013-03-03T02:00:00Z,26.4679,-82.0631,1.0,-9999.0,1111122 
SCCF RECON,ioos:station:SCCF:11:1,2013-03-03T03:00:00Z,26.4679,-82.0631,1.0,-9999.0,1111122 
SCCF RECON,ioos:station:SCCF:11:1,2013-03-03T04:00:00Z,26.4679,-82.0631,1.0,-9999.0,1111122 
SCCF RECON,ioos:station:SCCF:11:1,2013-03-03T05:00:00Z,26.4679,-82.0631,1.0,-9999.0,1111122 
SCCF RECON,ioos:station:SCCF:11:1,2013-03-03T06:00:00Z,26.4679,-82.0631,1.0,-9999.0,1111122 
SCCF RECON,ioos:station:SCCF:11:1,2013-03-03T07:00:00Z,26.4679,-82.0631,1.0,-9999.0,1111122 
SCCF RECON,ioos:station:SCCF:11:1,2013-03-03T08:00:00Z,26.4679,-82.0631,1.0,-9999.0,1111122 
SCCF RECON,ioos:station:SCCF:11:1,2013-03-03T09:00:00Z,26.4679,-82.0631,1.0,-9999.0,1111122 
SCCF RECON,ioos:station:SCCF:11:1,2013-03-03T10:00:00Z,26.4679,-82.0631,1.0,-9999.0,1111122 
SCCF RECON,ioos:station:SCCF:11:1,2013-03-03T11:00:00Z,26.4679,-82.0631,1.0,-9999.0,1111122 
SCCF RECON,ioos:station:SCCF:11:1,2013-03-03T12:00:00Z,26.4679,-82.0631,1.0,-9999.0,1111122 
SCCF RECON,ioos:station:SCCF:11:1,2013-03-03T13:00:00Z,26.4679,-82.0631,1.0,-9999.0,1111122 
SCCF RECON,ioos:station:SCCF:11:1,2013-03-03T14:00:00Z,26.4679,-82.0631,1.0,-9999.0,1111122 
SCCF RECON,ioos:station:SCCF:11:1,2013-03-03T15:00:00Z,26.4679,-82.0631,1.0,-9999.0,1111122 
SCCF RECON,ioos:station:SCCF:11:1,2013-03-03T16:00:00Z,26.4679,-82.0631,1.0,-9999.0,1111122 
SCCF RECON,ioos:station:SCCF:11:1,2013-03-03T17:00:00Z,26.4679,-82.0631,1.0,-9999.0,1111122 
SCCF RECON,ioos:station:SCCF:11:1,2013-03-03T18:00:00Z,26.4679,-82.0631,1.0,-9999.0,1111122 
SCCF RECON,ioos:station:SCCF:11:1,2013-03-03T19:00:00Z,26.4679,-82.0631,1.0,-9999.0,1111122 
SCCF RECON,ioos:station:SCCF:11:1,2013-03-03T20:00:00Z,26.4679,-82.0631,1.0,-9999.0,1111122 
SCCF RECON,ioos:station:SCCF:11:1,2013-03-03T21:00:00Z,26.4679,-82.0631,1.0,-9999.0,1111122 
SCCF RECON,ioos:station:SCCF:11:1,2013-03-03T22:00:00Z,26.4679,-82.0631,1.0,-9999.0,1111122 
SCCF RECON,ioos:station:SCCF:11:1,2013-03-03T23:00:00Z,26.4679,-82.0631,1.0,-9999.0,1111122 
SCCF RECON,ioos:station:SCCF:11:1,2013-03-04T00:00:00Z,26.4679,-82.0631,1.0,-9999.0,1111122 
SCCF RECON,ioos:station:SCCF:11:1,2013-03-04T01:00:00Z,26.4679,-82.0631,1.0,-9999.0,1111122 
SCCF RECON,ioos:station:SCCF:11:1,2013-03-04T02:00:00Z,26.4679,-82.0631,1.0,-9999.0,1111122 
SCCF RECON,ioos:station:SCCF:11:1,2013-03-04T03:00:00Z,26.4679,-82.0631,1.0,-9999.0,1111122 
SCCF RECON,ioos:station:SCCF:11:1,2013-03-04T04:00:00Z,26.4679,-82.0631,1.0,-9999.0,1111122 
SCCF RECON,ioos:station:SCCF:11:1,2013-03-04T05:00:00Z,26.4679,-82.0631,1.0,-9999.0,1111122 
SCCF RECON,ioos:station:SCCF:11:1,2013-03-04T06:00:00Z,26.4679,-82.0631,1.0,-9999.0,1111122 
SCCF RECON,ioos:station:SCCF:11:1,2013-03-04T07:00:00Z,26.4679,-82.0631,1.0,-9999.0,1111122 
SCCF RECON,ioos:station:SCCF:11:1,2013-03-04T08:00:00Z,26.4679,-82.0631,1.0,-9999.0,1111122 
SCCF RECON,ioos:station:SCCF:11:1,2013-03-04T09:00:00Z,26.4679,-82.0631,1.0,-9999.0,1111122 
SCCF RECON,ioos:station:SCCF:11:1,2013-03-04T10:00:00Z,26.4679,-82.0631,1.0,-9999.0,1111122 
SCCF RECON,ioos:station:SCCF:11:1,2013-03-04T11:00:00Z,26.4679,-82.0631,1.0,-9999.0,1111122 
SCCF RECON,ioos:station:SCCF:11:1,2013-03-04T12:00:00Z,26.4679,-82.0631,1.0,-9999.0,1111122 
SCCF RECON,ioos:station:SCCF:11:1,2013-03-04T13:00:00Z,26.4679,-82.0631,1.0,-9999.0,1111122 
SCCF RECON,ioos:station:SCCF:11:1,2013-03-04T14:00:00Z,26.4679,-82.0631,1.0,-9999.0,1111122 
SCCF RECON,ioos:station:SCCF:11:1,2013-03-04T15:00:00Z,26.4679,-82.0631,1.0,-9999.0,1111122 
SCCF RECON,ioos:station:SCCF:11:1,2013-03-04T16:00:00Z,26.4679,-82.0631,1.0,-9999.0,1111122 
SCCF RECON,ioos:station:SCCF:11:1,2013-03-04T17:00:00Z,26.4679,-82.0631,1.0,-9999.0,1111122 
SCCF RECON,ioos:station:SCCF:11:1,2013-03-04T18:00:00Z,26.4679,-82.0631,1.0,-9999.0,1111122 
SCCF RECON,ioos:station:SCCF:11:1,2013-03-04T19:00:00Z,26.4679,-82.0631,1.0,-9999.0,1111122 
SCCF RECON,ioos:station:SCCF:11:1,2013-03-04T20:00:00Z,26.4679,-82.0631,1.0,-9999.0,1111122 
SCCF RECON,ioos:station:SCCF:11:1,2013-03-04T21:00:00Z,26.4679,-82.0631,1.0,-9999.0,1111122 
SCCF RECON,ioos:station:SCCF:11:1,2013-03-04T22:00:00Z,26.4679,-82.0631,1.0,-9999.0,1111122 
SCCF RECON,ioos:station:SCCF:11:1,2013-03-04T23:00:00Z,26.4679,-82.0631,1.0,-9999.0,1111122 
SCCF RECON,ioos:station:SCCF:11:1,2013-03-05T00:00:00Z,26.4679,-82.0631,1.0,-9999.0,1111122 
SCCF RECON,ioos:station:SCCF:11:1,2013-03-05T01:00:00Z,26.4679,-82.0631,1.0,-9999.0,1111122 
SCCF RECON,ioos:station:SCCF:11:1,2013-03-05T02:00:00Z,26.4679,-82.0631,1.0,-9999.0,1111122 
SCCF RECON,ioos:station:SCCF:11:1,2013-03-05T03:00:00Z,26.4679,-82.0631,1.0,-9999.0,1111122 
SCCF RECON,ioos:station:SCCF:11:1,2013-03-05T04:00:00Z,26.4679,-82.0631,1.0,-9999.0,1111122 
SCCF RECON,ioos:station:SCCF:11:1,2013-03-05T05:00:00Z,26.4679,-82.0631,1.0,-9999.0,1111122 
SCCF RECON,ioos:station:SCCF:11:1,2013-03-05T06:00:00Z,26.4679,-82.0631,1.0,-9999.0,1111122 
SCCF RECON,ioos:station:SCCF:11:1,2013-03-05T07:00:00Z,26.4679,-82.0631,1.0,-9999.0,1111122 
SCCF RECON,ioos:station:SCCF:11:1,2013-03-05T08:00:00Z,26.4679,-82.0631,1.0,-9999.0,1111122 
SCCF RECON,ioos:station:SCCF:11:1,2013-03-05T09:00:00Z,26.4679,-82.0631,1.0,-9999.0,1111122 
SCCF RECON,ioos:station:SCCF:11:1,2013-03-05T10:00:00Z,26.4679,-82.0631,1.0,-9999.0,1111122 
SCCF RECON,ioos:station:SCCF:11:1,2013-03-05T11:00:00Z,26.4679,-82.0631,1.0,-9999.0,1111122 
SCCF RECON,ioos:station:SCCF:11:1,2013-03-05T12:00:00Z,26.4679,-82.0631,1.0,-9999.0,1111122 
SCCF RECON,ioos:station:SCCF:11:1,2013-03-05T13:00:00Z,26.4679,-82.0631,1.0,-9999.0,1111122 
SCCF RECON,ioos:station:SCCF:11:1,2013-03-05T14:00:00Z,26.4679,-82.0631,1.0,-9999.0,1111122 
SCCF RECON,ioos:station:SCCF:11:1,2013-03-05T15:00:00Z,26.4679,-82.0631,1.0,-9999.0,1111122 
SCCF RECON,ioos:station:SCCF:11:1,2013-03-05T16:00:00Z,26.4679,-82.0631,1.0,-9999.0,1111122 
SCCF RECON,ioos:station:SCCF:11:1,2013-03-05T17:00:00Z,26.4679,-82.0631,1.0,-9999.0,1111122 
SCCF RECON,ioos:station:SCCF:11:1,2013-03-05T18:00:00Z,26.4679,-82.0631,1.89,31.87,1111122 
SCCF RECON,ioos:station:SCCF:11:1,2013-03-05T19:00:00Z,26.4679,-82.0631,1.927,31.99,1111122 
SCCF RECON,ioos:station:SCCF:11:1,2013-03-05T20:00:00Z,26.4679,-82.0631,2.001,32.2,1111122 
SCCF RECON,ioos:station:SCCF:11:1,2013-03-05T21:00:00Z,26.4679,-82.0631,2.092,32.63,1111122 
SCCF RECON,ioos:station:SCCF:11:1,2013-03-05T22:00:00Z,26.4679,-82.0631,2.13,32.92,1111122 
SCCF RECON,ioos:station:SCCF:11:1,2013-03-05T23:00:00Z,26.4679,-82.0631,2.167,33.13,1111122 
SCCF RECON,ioos:station:SCCF:11:1,2013-03-06T00:00:00Z,26.4679,-82.0631,2.19,33.13,1111122 
SCCF RECON,ioos:station:SCCF:11:1,2013-03-06T01:00:00Z,26.4679,-82.0631,2.14,32.95,1111122 
SCCF RECON,ioos:station:SCCF:11:1,2013-03-06T02:00:00Z,26.4679,-82.0631,2.039,32.45,1111122 
SCCF RECON,ioos:station:SCCF:11:1,2013-03-06T03:00:00Z,26.4679,-82.0631,1.96,32.45,1111122 
SCCF RECON,ioos:station:SCCF:11:1,2013-03-06T04:00:00Z,26.4679,-82.0631,1.83,32.47,1111122 
SCCF RECON,ioos:station:SCCF:11:1,2013-03-06T05:00:00Z,26.4679,-82.0631,1.72,32.53,1111122 
SCCF RECON,ioos:station:SCCF:11:1,2013-03-06T06:00:00Z,26.4679,-82.0631,1.61,32.56,1111122 
SCCF RECON,ioos:station:SCCF:11:1,2013-03-06T07:00:00Z,26.4679,-82.0631,1.501,32.69,1111122 
SCCF RECON,ioos:station:SCCF:11:1,2013-03-06T08:00:00Z,26.4679,-82.0631,1.48,32.72,1111122 
SCCF RECON,ioos:station:SCCF:11:1,2013-03-06T09:00:00Z,26.4679,-82.0631,1.522,32.68,1111122 
SCCF RECON,ioos:station:SCCF:11:1,2013-03-06T10:00:00Z,26.4679,-82.0631,1.62,32.96,1111122 
SCCF RECON,ioos:station:SCCF:11:1,2013-03-06T11:00:00Z,26.4679,-82.0631,1.72,32.79,1111122 
SCCF RECON,ioos:station:SCCF:11:1,2013-03-06T12:00:00Z,26.4679,-82.0631,1.82,32.72,1111122 
SCCF RECON,ioos:station:SCCF:11:1,2013-03-06T13:00:00Z,26.4679,-82.0631,1.929,32.76,1111122 
SCCF RECON,ioos:station:SCCF:11:1,2013-03-06T14:00:00Z,26.4679,-82.0631,2.055,32.91,1111122 
SCCF RECON,ioos:station:SCCF:11:1,2013-03-06T15:00:00Z,26.4679,-82.0631,2.096,32.66,1111122 
SCCF RECON,ioos:station:SCCF:11:1,2013-03-06T16:00:00Z,26.4679,-82.0631,1.918,32.78,1111122 
SCCF RECON,ioos:station:SCCF:11:1,2013-03-06T17:00:00Z,26.4679,-82.0631,1.773,32.81,1111122 
SCCF RECON,ioos:station:SCCF:11:1,2013-03-06T18:00:00Z,26.4679,-82.0631,1.742,32.83,1111122 
SCCF RECON,ioos:station:SCCF:11:1,2013-03-06T19:00:00Z,26.4679,-82.0631,1.746,32.6,1111122 
SCCF RECON,ioos:station:SCCF:11:1,2013-03-06T20:00:00Z,26.4679,-82.0631,1.753,32.56,1111122 
SCCF RECON,ioos:station:SCCF:11:1,2013-03-06T21:00:00Z,26.4679,-82.0631,1.763,32.58,1111122 
SCCF RECON,ioos:station:SCCF:11:1,2013-03-06T22:00:00Z,26.4679,-82.0631,1.807,32.59,1111122 
SCCF RECON,ioos:station:SCCF:11:1,2013-03-06T23:00:00Z,26.4679,-82.0631,1.874,32.61,1111122 
SCCF RECON,ioos:station:SCCF:11:1,2013-03-07T00:00:00Z,26.4679,-82.0631,1.961,32.51,1111122 
SCCF RECON,ioos:station:SCCF:11:1,2013-03-07T01:00:00Z,26.4679,-82.0631,2.005,32.5,1111122 
SCCF RECON,ioos:station:SCCF:11:1,2013-03-07T02:00:00Z,26.4679,-82.0631,1.998,32.68,1111122 
SCCF RECON,ioos:station:SCCF:11:1,2013-03-07T03:00:00Z,26.4679,-82.0631,1.949,32.68,1111122 
SCCF RECON,ioos:station:SCCF:11:1,2013-03-07T04:00:00Z,26.4679,-82.0631,1.867,32.68,1111122 
SCCF RECON,ioos:station:SCCF:11:1,2013-03-07T05:00:00Z,26.4679,-82.0631,1.773,32.81,1111122 
SCCF RECON,ioos:station:SCCF:11:1,2013-03-07T06:00:00Z,26.4679,-82.0631,1.64,32.9,1111122 
SCCF RECON,ioos:station:SCCF:11:1,2013-03-07T07:00:00Z,26.4679,-82.0631,1.5,32.98,1111122 
SCCF RECON,ioos:station:SCCF:11:1,2013-03-07T08:00:00Z,26.4679,-82.0631,1.402,33.04,1111122 
SCCF RECON,ioos:station:SCCF:11:1,2013-03-07T09:00:00Z,26.4679,-82.0631,1.323,33.09,1111122 
SCCF RECON,ioos:station:SCCF:11:1,2013-03-07T10:00:00Z,26.4679,-82.0631,1.303,33.06,1111122 
SCCF RECON,ioos:station:SCCF:11:1,2013-03-07T11:00:00Z,26.4679,-82.0631,1.344,33.23,1111122 
SCCF RECON,ioos:station:SCCF:11:1,2013-03-07T12:00:00Z,26.4679,-82.0631,1.468,34.07,1111122 
SCCF RECON,ioos:station:SCCF:11:1,2013-03-07T13:00:00Z,26.4679,-82.0631,1.613,33.14,1111122 
SCCF RECON,ioos:station:SCCF:11:1,2013-03-07T14:00:00Z,26.4679,-82.0631,1.719,33.66,1111122 
SCCF RECON,ioos:station:SCCF:11:1,2013-03-07T15:00:00Z,26.4679,-82.0631,1.78,33.64,1111122 
SCCF RECON,ioos:station:SCCF:11:1,2013-03-07T16:00:00Z,26.4679,-82.0631,1.82,32.63,1111122 
SCCF RECON,ioos:station:SCCF:11:1,2013-03-07T17:00:00Z,26.4679,-82.0631,1.84,33.22,1111122 
SCCF RECON,ioos:station:SCCF:11:1,2013-03-07T18:00:00Z,26.4679,-82.0631,1.778,33.03,1111122 
SCCF RECON,ioos:station:SCCF:11:1,2013-03-07T19:00:00Z,26.4679,-82.0631,1.702,32.71,1111122 
SCCF RECON,ioos:station:SCCF:11:1,2013-03-07T20:00:00Z,26.4679,-82.0631,1.659,32.77,1111122 
SCCF RECON,ioos:station:SCCF:11:1,2013-03-07T21:00:00Z,26.4679,-82.0631,1.663,32.74,1111122 
SCCF RECON,ioos:station:SCCF:11:1,2013-03-07T22:00:00Z,26.4679,-82.0631,1.744,32.69,1111122 
SCCF RECON,ioos:station:SCCF:11:1,2013-03-07T23:00:00Z,26.4679,-82.0631,1.844,33.03,1111122 
SCCF RECON,ioos:station:SCCF:11:1,2013-03-08T00:00:00Z,26.4679,-82.0631,1.925,33.74,1111122 
SCCF RECON,ioos:station:SCCF:11:1,2013-03-08T01:00:00Z,26.4679,-82.0631,1.982,33.9,1111122 
SCCF RECON,ioos:station:SCCF:11:1,2013-03-08T02:00:00Z,26.4679,-82.0631,2.038,34.08,1111122 
SCCF RECON,ioos:station:SCCF:11:1,2013-03-08T03:00:00Z,26.4679,-82.0631,2.052,34.34,1111122 
SCCF RECON,ioos:station:SCCF:11:1,2013-03-08T04:00:00Z,26.4679,-82.0631,2.01,33.81,1111122 
SCCF RECON,ioos:station:SCCF:11:1,2013-03-08T05:00:00Z,26.4679,-82.0631,1.88,33.64,1111122 
SCCF RECON,ioos:station:SCCF:11:1,2013-03-08T06:00:00Z,26.4679,-82.0631,1.745,33.46,1111122 
SCCF RECON,ioos:station:SCCF:11:1,2013-03-08T07:00:00Z,26.4679,-82.0631,1.614,33.45,1111122 
SCCF RECON,ioos:station:SCCF:11:1,2013-03-08T08:00:00Z,26.4679,-82.0631,1.488,33.5,1111122 
SCCF RECON,ioos:station:SCCF:11:1,2013-03-08T09:00:00Z,26.4679,-82.0631,1.376,33.52,1111122 
SCCF RECON,ioos:station:SCCF:11:1,2013-03-08T10:00:00Z,26.4679,-82.0631,1.3,33.57,1111122 
SCCF RECON,ioos:station:SCCF:11:1,2013-03-08T11:00:00Z,26.4679,-82.0631,1.319,33.59,1111122 
SCCF RECON,ioos:station:SCCF:11:1,2013-03-08T12:00:00Z,26.4679,-82.0631,1.425,33.56,1111122 
SCCF RECON,ioos:station:SCCF:11:1,2013-03-08T13:00:00Z,26.4679,-82.0631,1.586,33.73,1111122 
SCCF RECON,ioos:station:SCCF:11:1,2013-03-08T14:00:00Z,26.4679,-82.0631,1.71,33.87,1111122 
SCCF RECON,ioos:station:SCCF:11:1,2013-03-08T15:00:00Z,26.4679,-82.0631,1.81,33.26,1111122 
SCCF RECON,ioos:station:SCCF:11:1,2013-03-08T16:00:00Z,26.4679,-82.0631,1.886,31.32,1111122 
SCCF RECON,ioos:station:SCCF:11:1,2013-03-08T17:00:00Z,26.4679,-82.0631,1.899,31.64,1111122 
SCCF RECON,ioos:station:SCCF:11:1,2013-03-08T18:00:00Z,26.4679,-82.0631,1.847,31.72,1111122 
SCCF RECON,ioos:station:SCCF:11:1,2013-03-08T19:00:00Z,26.4679,-82.0631,1.738,33.03,1111122 
SCCF RECON,ioos:station:SCCF:11:1,2013-03-08T20:00:00Z,26.4679,-82.0631,1.66,32.79,1111122 
SCCF RECON,ioos:station:SCCF:11:1,2013-03-08T21:00:00Z,26.4679,-82.0631,1.619,32.48,1111122 
SCCF RECON,ioos:station:SCCF:11:1,2013-03-08T22:00:00Z,26.4679,-82.0631,1.63,32.53,1111122 
SCCF RECON,ioos:station:SCCF:11:1,2013-03-08T23:00:00Z,26.4679,-82.0631,1.716,32.38,1111122 
SCCF RECON,ioos:station:SCCF:11:1,2013-03-09T00:00:00Z,26.4679,-82.0631,1.84,33.09,1111122 
SCCF RECON,ioos:station:SCCF:11:1,2013-03-09T01:00:00Z,26.4679,-82.0631,1.959,33.02,1111122 
SCCF RECON,ioos:station:SCCF:11:1,2013-03-09T02:00:00Z,26.4679,-82.0631,2.06,32.91,1111122 
SCCF RECON,ioos:station:SCCF:11:1,2013-03-09T03:00:00Z,26.4679,-82.0631,2.13,32.9,1111122 
SCCF RECON,ioos:station:SCCF:11:1,2013-03-09T04:00:00Z,26.4679,-82.0631,2.17,32.87,1111122 
SCCF RECON,ioos:station:SCCF:11:1,2013-03-09T05:00:00Z,26.4679,-82.0631,2.12,33.08,1111122 
SCCF RECON,ioos:station:SCCF:11:1,2013-03-09T06:00:00Z,26.4679,-82.0631,1.99,33.03,1111122 
SCCF RECON,ioos:station:SCCF:11:1,2013-03-09T07:00:00Z,26.4679,-82.0631,1.84,33.18,1111122 
SCCF RECON,ioos:station:SCCF:11:1,2013-03-09T08:00:00Z,26.4679,-82.0631,1.69,33.28,1111122 
SCCF RECON,ioos:station:SCCF:11:1,2013-03-09T09:00:00Z,26.4679,-82.0631,1.551,33.3,1111122 
SCCF RECON,ioos:station:SCCF:11:1,2013-03-09T10:00:00Z,26.4679,-82.0631,1.43,33.36,1111122 
SCCF RECON,ioos:station:SCCF:11:1,2013-03-09T11:00:00Z,26.4679,-82.0631,1.375,33.46,1111122 
SCCF RECON,ioos:station:SCCF:11:1,2013-03-09T12:00:00Z,26.4679,-82.0631,1.44,33.38,1111122 
SCCF RECON,ioos:station:SCCF:11:1,2013-03-09T13:00:00Z,26.4679,-82.0631,1.63,33.29,1111122 
SCCF RECON,ioos:station:SCCF:11:1,2013-03-09T14:00:00Z,26.4679,-82.0631,1.782,33.3,1111122 
SCCF RECON,ioos:station:SCCF:11:1,2013-03-09T15:00:00Z,26.4679,-82.0631,1.9,33.21,1111122 
SCCF RECON,ioos:station:SCCF:11:1,2013-03-09T16:00:00Z,26.4679,-82.0631,1.99,33.12,1111122 
SCCF RECON,ioos:station:SCCF:11:1,2013-03-09T17:00:00Z,26.4679,-82.0631,2.027,33.1,1111122 
SCCF RECON,ioos:station:SCCF:11:1,2013-03-09T18:00:00Z,26.4679,-82.0631,1.998,33.2,1111122 
SCCF RECON,ioos:station:SCCF:11:1,2013-03-09T19:00:00Z,26.4679,-82.0631,1.89,33.16,1111122 
SCCF RECON,ioos:station:SCCF:11:1,2013-03-09T20:00:00Z,26.4679,-82.0631,1.778,33.24,1111122 
SCCF RECON,ioos:station:SCCF:11:1,2013-03-09T21:00:00Z,26.4679,-82.0631,1.703,33.33,1111122 
SCCF RECON,ioos:station:SCCF:11:1,2013-03-09T22:00:00Z,26.4679,-82.0631,1.64,33.31,1111122 
SCCF RECON,ioos:station:SCCF:11:1,2013-03-09T23:00:00Z,26.4679,-82.0631,1.64,33.36,1111122 
SCCF RECON,ioos:station:SCCF:11:1,2013-03-10T00:00:00Z,26.4679,-82.0631,1.75,33.29,1111122 
SCCF RECON,ioos:station:SCCF:11:1,2013-03-10T01:00:00Z,26.4679,-82.0631,1.914,33.26,1111122 
SCCF RECON,ioos:station:SCCF:11:1,2013-03-10T02:00:00Z,26.4679,-82.0631,2.05,33.21,1111122 
SCCF RECON,ioos:station:SCCF:11:1,2013-03-10T03:00:00Z,26.4679,-82.0631,2.15,32.96,1111122 
SCCF RECON,ioos:station:SCCF:11:1,2013-03-10T04:00:00Z,26.4679,-82.0631,2.208,32.97,1111122 
SCCF RECON,ioos:station:SCCF:11:1,2013-03-10T05:00:00Z,26.4679,-82.0631,2.22,32.93,1111122 
SCCF RECON,ioos:station:SCCF:11:1,2013-03-10T06:00:00Z,26.4679,-82.0631,2.144,33.08,1111122 
SCCF RECON,ioos:station:SCCF:11:1,2013-03-10T07:00:00Z,26.4679,-82.0631,1.982,33.17,1111122 
SCCF RECON,ioos:station:SCCF:11:1,2013-03-10T08:00:00Z,26.4679,-82.0631,1.826,33.35,1111122 
SCCF RECON,ioos:station:SCCF:11:1,2013-03-10T09:00:00Z,26.4679,-82.0631,1.68,33.38,1111122 
SCCF RECON,ioos:station:SCCF:11:1,2013-03-10T10:00:00Z,26.4679,-82.0631,1.55,33.4,1111122 
SCCF RECON,ioos:station:SCCF:11:1,2013-03-10T11:00:00Z,26.4679,-82.0631,1.44,33.48,1111122 
SCCF RECON,ioos:station:SCCF:11:1,2013-03-10T12:00:00Z,26.4679,-82.0631,1.43,33.53,1111122 
SCCF RECON,ioos:station:SCCF:11:1,2013-03-10T13:00:00Z,26.4679,-82.0631,1.589,33.31,1111122 
SCCF RECON,ioos:station:SCCF:11:1,2013-03-10T14:00:00Z,26.4679,-82.0631,1.79,33.31,1111122 
SCCF RECON,ioos:station:SCCF:11:1,2013-03-10T15:00:00Z,26.4679,-82.0631,1.939,33.28,1111122 
SCCF RECON,ioos:station:SCCF:11:1,2013-03-10T16:00:00Z,26.4679,-82.0631,2.039,33.34,1111122 
SCCF RECON,ioos:station:SCCF:11:1,2013-03-10T17:00:00Z,26.4679,-82.0631,2.091,33.31,1111122 
SCCF RECON,ioos:station:SCCF:11:1,2013-03-10T18:00:00Z,26.4679,-82.0631,2.074,33.65,1111122 
SCCF RECON,ioos:station:SCCF:11:1,2013-03-10T19:00:00Z,26.4679,-82.0631,1.993,33.33,1111122 
SCCF RECON,ioos:station:SCCF:11:1,2013-03-10T20:00:00Z,26.4679,-82.0631,1.859,33.24,1111122 
SCCF RECON,ioos:station:SCCF:11:1,2013-03-10T21:00:00Z,26.4679,-82.0631,1.763,33.35,1111122 
SCCF RECON,ioos:station:SCCF:11:1,2013-03-10T22:00:00Z,26.4679,-82.0631,1.697,33.37,1111122 
SCCF RECON,ioos:station:SCCF:11:1,2013-03-10T23:00:00Z,26.4679,-82.0631,1.632,33.38,1111122 
SCCF RECON,ioos:station:SCCF:11:1,2013-03-11T00:00:00Z,26.4679,-82.0631,1.62,33.41,1111122 
SCCF RECON,ioos:station:SCCF:11:1,2013-03-11T01:00:00Z,26.4679,-82.0631,1.74,33.39,1111122 
SCCF RECON,ioos:station:SCCF:11:1,2013-03-11T02:00:00Z,26.4679,-82.0631,1.949,33.58,1111122 
SCCF RECON,ioos:station:SCCF:11:1,2013-03-11T03:00:00Z,26.4679,-82.0631,2.1,33.49,1111122 
SCCF RECON,ioos:station:SCCF:11:1,2013-03-11T04:00:00Z,26.4679,-82.0631,2.201,33.74,1111122 
SCCF RECON,ioos:station:SCCF:11:1,2013-03-11T05:00:00Z,26.4679,-82.0631,2.27,33.71,1111122 
SCCF RECON,ioos:station:SCCF:11:1,2013-03-11T06:00:00Z,26.4679,-82.0631,2.28,34.13,1111122 
SCCF RECON,ioos:station:SCCF:11:1,2013-03-11T07:00:00Z,26.4679,-82.0631,2.16,33.8,1111122 
SCCF RECON,ioos:station:SCCF:11:1,2013-03-11T08:00:00Z,26.4679,-82.0631,1.985,33.6,1111122 
SCCF RECON,ioos:station:SCCF:11:1,2013-03-11T09:00:00Z,26.4679,-82.0631,1.833,33.54,1111122 
SCCF RECON,ioos:station:SCCF:11:1,2013-03-11T10:00:00Z,26.4679,-82.0631,1.709,33.55,1111122 
SCCF RECON,ioos:station:SCCF:11:1,2013-03-11T11:00:00Z,26.4679,-82.0631,1.599,33.57,1111122 
SCCF RECON,ioos:station:SCCF:11:1,2013-03-11T12:00:00Z,26.4679,-82.0631,1.549,33.6,1111122 
SCCF RECON,ioos:station:SCCF:11:1,2013-03-11T13:00:00Z,26.4679,-82.0631,1.63,33.62,1111122 
SCCF RECON,ioos:station:SCCF:11:1,2013-03-11T14:00:00Z,26.4679,-82.0631,1.82,33.55,1111122 
SCCF RECON,ioos:station:SCCF:11:1,2013-03-11T15:00:00Z,26.4679,-82.0631,1.976,33.55,1111122 
SCCF RECON,ioos:station:SCCF:11:1,2013-03-11T16:00:00Z,26.4679,-82.0631,2.073,33.71,1111122 
SCCF RECON,ioos:station:SCCF:11:1,2013-03-11T17:00:00Z,26.4679,-82.0631,2.172,33.89,1111122 